User: anonymous   Login
Location: Blandford
(50.8667°N, 2.1667°W)
Time: 17:16:23
(UTC+00:00)
Language:

ATLAS CENTAUR R/B - Orbit

View from above orbital plane
View from above orbital plane
View from above satellite
View from above satellite

Ground track
Ground track

The orbit data is extracted from the following two-line orbital elements,

1 38770U 12048N   20195.10155463 0.00000320  00000-0  21970-4 0    03
2 38770  64.6536  80.4430 0141390 133.0612 226.9388 14.97871602    03
Epoch (UTC): 13 July 2020 02:26:14
Eccentricity: 0.0141390
inclination: 64.6536°
perigee height: 475 km
apogee height: 672 km
right ascension of ascending node: 80.4430°
argument of perigee: 133.0612°
revolutions per day: 14.97871602
mean anomaly at epoch: 226.9388°
orbit number at epoch: 0

The dashed part of the orbit path shows where the satellite is in the earth's shadow,  

DLR